Flag for Germany Weather past 2 weeks in Ehingen (Donau), Baden-Württemberg, Germany

Now
64 °F

Drizzle. Partly sunny.


Feels Like: 64 °F
Forecast: 60 / 74 °F
Wind: 5 mph from Northeast

Location: Laupheim Airport

Current Time: Jul 22, 2014 at 9:25:01 AM

Latest Report: Jul 22, 2014 at 8:58 AM


Visibility: N/A

Pressure: 29.89 "Hg

Humidity: 94%

Dew point: 63 °F

Location of Ehingen (Donau)Location

Historic Weather in Ehingen (Donau) — Graph

°F

Ehingen (Donau) temperature yesterday

Maximum temperature yesterday: 64 °F (at 12:20 AM)
Minimum temperature yesterday: 59 °F (at 5:20 AM)
Average temperature yesterday: 62 °F

Past Weeks' High & Low Weather Summary

 TemperatureHumidityPressure
High90 °F (Jul 19, 5:20 PM)100% (Jul 8, 2:20 AM)30.21 "Hg (Jul 8, 2:20 AM)
Low50 °F (Jul 10, 1:20 AM)29% (Jul 19, 5:20 PM)29.80 "Hg (Jul 10, 2:20 AM)
Average65 °F76%29.99 "Hg
* Reported Jul 7 7:20 AM — Jul 22 7:51 AM, Ehingen (Donau), Weather by CustomWeather, © 2014

Note: Actual official high and low records may vary slightly from our data, if they occured in-between our weather recording intervals... More about our weather records

Advertising

Ehingen (Donau) weather history for previous 24 hours

 ConditionsComfort  
Time TempWeatherWind HumidityBarometerVisibility
7:51 AM
Jul 22
63 °FLight rain. Partly sunny.3 mph100%29.89 "HgN/A
7:20 AM63 °FLight rain. Partly sunny.3 mph100%29.86 "HgN/A
7:00 AM63 °FLight rain. Partly sunny.3 mph94%29.86 "HgN/A
6:20 AM63 °FLight rain. Passing clouds.3 mph100%29.86 "HgN/A
5:20 AM63 °FLight rain. Overcast.2 mph100%29.86 "Hg5 mi
4:20 AM61 °FLight rain. Fog.3 mph100%29.86 "Hg3 mi
3:20 AM61 °FRain. Fog.8 mph100%29.86 "Hg2 mi
2:20 AM61 °FRain. Fog.8 mph100%29.89 "Hg2 mi
1:20 AM61 °FRain. Fog.10 mph100%29.89 "Hg2 mi
12:20 AM61 °FRain. Fog.6 mph100%29.92 "Hg2 mi
11:20 PM
Jul 21
61 °FRain. Fog.7 mph100%29.92 "Hg3 mi
10:20 PM61 °FRain. Fog.5 mph94%29.95 "Hg2 mi
9:20 PM61 °FRain. Fog.7 mph94%29.95 "Hg2 mi
8:20 PM61 °FRain. Fog.7 mph94%29.95 "Hg3 mi
7:20 PM61 °FRain. More clouds than sun.8 mph100%29.95 "Hg4 mi
6:20 PM61 °FRain. More clouds than sun.9 mph100%29.92 "Hg6 mi
5:20 PM63 °FLight rain. More clouds than sun.9 mph88%29.92 "HgN/A
4:20 PM63 °FLight rain. More clouds than sun.8 mph88%29.92 "HgN/A
3:20 PM64 °FLight rain. Broken clouds.7 mph83%29.92 "HgN/A
2:20 PM64 °FLight rain. Broken clouds.7 mph83%29.92 "HgN/A
1:20 PM64 °FBroken clouds.9 mph83%29.92 "HgN/A
12:20 PM63 °FLight rain. Broken clouds.7 mph88%29.95 "HgN/A
11:20 AM61 °FLight rain. Partly sunny.5 mph88%29.95 "HgN/A
10:20 AM61 °FLight rain. Partly sunny.7 mph94%29.92 "HgN/A
9:20 AM61 °FPartly sunny.8 mph88%29.95 "HgN/A
Weather by CustomWeather, © 2014

See weather overviewHow to use our weather pages